Netzbetreibername:;Stadtwerke Schwarzenberg GmbH;;
Netz- oder Umspannebene:;Niederspannung;;
Lastgangtyp:;Lastverlauf SLP-Kunden Niederspannungsnetz;;
gesetzliche Grundlage:;� 17 Abs. 2 Nr. 3 StromNZV;;
Einheit:;kW;;
Betrachtungszeitraum:;01.01.2022;bis;31.12.2022
;;;
Datum;von;bis;Wert
01.01.2022;0:00;0:15;3177
01.01.2022;0:15;0:30;3108
01.01.2022;0:30;0:45;3078
01.01.2022;0:45;1:00;2935
01.01.2022;1:00;1:15;2866
01.01.2022;1:15;1:30;2776
01.01.2022;1:30;1:45;2657
01.01.2022;1:45;2:00;2581
01.01.2022;2:00;2:15;2496
01.01.2022;2:15;2:30;2398
01.01.2022;2:30;2:45;2357
01.01.2022;2:45;3:00;2278
01.01.2022;3:00;3:15;2228
01.01.2022;3:15;3:30;2213
01.01.2022;3:30;3:45;2235
01.01.2022;3:45;4:00;2243
01.01.2022;4:00;4:15;2268
01.01.2022;4:15;4:30;2300
01.01.2022;4:30;4:45;2406
01.01.2022;4:45;5:00;2394
01.01.2022;5:00;5:15;2424
01.01.2022;5:15;5:30;2435
01.01.2022;5:30;5:45;2387
01.01.2022;5:45;6:00;2339
01.01.2022;6:00;6:15;2402
01.01.2022;6:15;6:30;2494
01.01.2022;6:30;6:45;2525
01.01.2022;6:45;7:00;2540
01.01.2022;7:00;7:15;2618
01.01.2022;7:15;7:30;2657
01.01.2022;7:30;7:45;2698
01.01.2022;7:45;8:00;2729
01.01.2022;8:00;8:15;2599
01.01.2022;8:15;8:30;2779
01.01.2022;8:30;8:45;2884
01.01.2022;8:45;9:00;3029
01.01.2022;9:00;9:15;3094
01.01.2022;9:15;9:30;3188
01.01.2022;9:30;9:45;3230
01.01.2022;9:45;10:00;3324
01.01.2022;10:00;10:15;3377
01.01.2022;10:15;10:30;3531
01.01.2022;10:30;10:45;3585
01.01.2022;10:45;11:00;3717
01.01.2022;11:00;11:15;3838
01.01.2022;11:15;11:30;4182
01.01.2022;11:30;11:45;4325
01.01.2022;11:45;12:00;4347
01.01.2022;12:00;12:15;4282
01.01.2022;12:15;12:30;4258
01.01.2022;12:30;12:45;4075
01.01.2022;12:45;13:00;3939
01.01.2022;13:00;13:15;3748
01.01.2022;13:15;13:30;3673
01.01.2022;13:30;13:45;3577
01.01.2022;13:45;14:00;3532
01.01.2022;14:00;14:15;3467
01.01.2022;14:15;14:30;3494
01.01.2022;14:30;14:45;3538
01.01.2022;14:45;15:00;3561
01.01.2022;15:00;15:15;3610
01.01.2022;15:15;15:30;3544
01.01.2022;15:30;15:45;3579
01.01.2022;15:45;16:00;3673
01.01.2022;16:00;16:15;3951
01.01.2022;16:15;16:30;4156
01.01.2022;16:30;16:45;4482
01.01.2022;16:45;17:00;4648
01.01.2022;17:00;17:15;4849
01.01.2022;17:15;17:30;4976
01.01.2022;17:30;17:45;5147
01.01.2022;17:45;18:00;5241
01.01.2022;18:00;18:15;5158
01.01.2022;18:15;18:30;5148
01.01.2022;18:30;18:45;5219
01.01.2022;18:45;19:00;5151
01.01.2022;19:00;19:15;5103
01.01.2022;19:15;19:30;5071
01.01.2022;19:30;19:45;4988
01.01.2022;19:45;20:00;4892
01.01.2022;20:00;20:15;4830
01.01.2022;20:15;20:30;4733
01.01.2022;20:30;20:45;4610
01.01.2022;20:45;21:00;4479
01.01.2022;21:00;21:15;4385
01.01.2022;21:15;21:30;4288
01.01.2022;21:30;21:45;4220
01.01.2022;21:45;22:00;4149
01.01.2022;22:00;22:15;4057
01.01.2022;22:15;22:30;3829
01.01.2022;22:30;22:45;3657
01.01.2022;22:45;23:00;3505
01.01.2022;23:00;23:15;3280
01.01.2022;23:15;23:30;3149
01.01.2022;23:30;23:45;2997
01.01.2022;23:45;0:00;2856
02.01.2022;0:00;0:15;2716
02.01.2022;0:15;0:30;2585
02.01.2022;0:30;0:45;2498
02.01.2022;0:45;1:00;2442
02.01.2022;1:00;1:15;2344
02.01.2022;1:15;1:30;2300
02.01.2022;1:30;1:45;2264
02.01.2022;1:45;2:00;2242
02.01.2022;2:00;2:15;2201
02.01.2022;2:15;2:30;2184
02.01.2022;2:30;2:45;2179
02.01.2022;2:45;3:00;2220
02.01.2022;3:00;3:15;2275
02.01.2022;3:15;3:30;2258
02.01.2022;3:30;3:45;2294
02.01.2022;3:45;4:00;2348
02.01.2022;4:00;4:15;2387
02.01.2022;4:15;4:30;2374
02.01.2022;4:30;4:45;2473
02.01.2022;4:45;5:00;2489
02.01.2022;5:00;5:15;2533
02.01.2022;5:15;5:30;2542
02.01.2022;5:30;5:45;2505
02.01.2022;5:45;6:00;2462
02.01.2022;6:00;6:15;2503
02.01.2022;6:15;6:30;2532
02.01.2022;6:30;6:45;2617
02.01.2022;6:45;7:00;2692
02.01.2022;7:00;7:15;2801
02.01.2022;7:15;7:30;2899
02.01.2022;7:30;7:45;3037
02.01.2022;7:45;8:00;3128
02.01.2022;8:00;8:15;3193
02.01.2022;8:15;8:30;3318
02.01.2022;8:30;8:45;3405
02.01.2022;8:45;9:00;3553
02.01.2022;9:00;9:15;3670
02.01.2022;9:15;9:30;3773
02.01.2022;9:30;9:45;3752
02.01.2022;9:45;10:00;3705
02.01.2022;10:00;10:15;3893
02.01.2022;10:15;10:30;4073
02.01.2022;10:30;10:45;4101
02.01.2022;10:45;11:00;4344
02.01.2022;11:00;11:15;4549
02.01.2022;11:15;11:30;4751
02.01.2022;11:30;11:45;4914
02.01.2022;11:45;12:00;4865
02.01.2022;12:00;12:15;4640
02.01.2022;12:15;12:30;4387
02.01.2022;12:30;12:45;4229
02.01.2022;12:45;13:00;4085
02.01.2022;13:00;13:15;3896
02.01.2022;13:15;13:30;3819
02.01.2022;13:30;13:45;3819
02.01.2022;13:45;14:00;3640
02.01.2022;14:00;14:15;3630
02.01.2022;14:15;14:30;3525
02.01.2022;14:30;14:45;3458
02.01.2022;14:45;15:00;3494
02.01.2022;15:00;15:15;3493
02.01.2022;15:15;15:30;3500
02.01.2022;15:30;15:45;3596
02.01.2022;15:45;16:00;3670
02.01.2022;16:00;16:15;3799
02.01.2022;16:15;16:30;4033
02.01.2022;16:30;16:45;4477
02.01.2022;16:45;17:00;4814
02.01.2022;17:00;17:15;5007
02.01.2022;17:15;17:30;5180
02.01.2022;17:30;17:45;5323
02.01.2022;17:45;18:00;5313
02.01.2022;18:00;18:15;5320
02.01.2022;18:15;18:30;5317
02.01.2022;18:30;18:45;5304
02.01.2022;18:45;19:00;5285
02.01.2022;19:00;19:15;5237
02.01.2022;19:15;19:30;5097
02.01.2022;19:30;19:45;5013
02.01.2022;19:45;20:00;4894
02.01.2022;20:00;20:15;4801
02.01.2022;20:15;20:30;4640
02.01.2022;20:30;20:45;4568
02.01.2022;20:45;21:00;4452
02.01.2022;21:00;21:15;4286
02.01.2022;21:15;21:30;4163
02.01.2022;21:30;21:45;4111
02.01.2022;21:45;22:00;4046
02.01.2022;22:00;22:15;3831
02.01.2022;22:15;22:30;3607
02.01.2022;22:30;22:45;3358
02.01.2022;22:45;23:00;3183
02.01.2022;23:00;23:15;2963
02.01.2022;23:15;23:30;2831
02.01.2022;23:30;23:45;2672
02.01.2022;23:45;0:00;2541
03.01.2022;0:00;0:15;2442
03.01.2022;0:15;0:30;2313
03.01.2022;0:30;0:45;2295
03.01.2022;0:45;1:00;2232
03.01.2022;1:00;1:15;2185
03.01.2022;1:15;1:30;2179
03.01.2022;1:30;1:45;2145
03.01.2022;1:45;2:00;2118
03.01.2022;2:00;2:15;2116
03.01.2022;2:15;2:30;2077
03.01.2022;2:30;2:45;2072
03.01.2022;2:45;3:00;2119
03.01.2022;3:00;3:15;2164
03.01.2022;3:15;3:30;2239
03.01.2022;3:30;3:45;2246
03.01.2022;3:45;4:00;2272
03.01.2022;4:00;4:15;2366
03.01.2022;4:15;4:30;2431
03.01.2022;4:30;4:45;2591
03.01.2022;4:45;5:00;2622
03.01.2022;5:00;5:15;2715
03.01.2022;5:15;5:30;2828
03.01.2022;5:30;5:45;2968
03.01.2022;5:45;6:00;3004
03.01.2022;6:00;6:15;3246
03.01.2022;6:15;6:30;3399
03.01.2022;6:30;6:45;3471
03.01.2022;6:45;7:00;3602
03.01.2022;7:00;7:15;3756
03.01.2022;7:15;7:30;3880
03.01.2022;7:30;7:45;4027
03.01.2022;7:45;8:00;4009
03.01.2022;8:00;8:15;4014
03.01.2022;8:15;8:30;4063
03.01.2022;8:30;8:45;4064
03.01.2022;8:45;9:00;4106
03.01.2022;9:00;9:15;4182
03.01.2022;9:15;9:30;4204
03.01.2022;9:30;9:45;4244
03.01.2022;9:45;10:00;4271
03.01.2022;10:00;10:15;4444
03.01.2022;10:15;10:30;4460
03.01.2022;10:30;10:45;4430
03.01.2022;10:45;11:00;4516
03.01.2022;11:00;11:15;4541
03.01.2022;11:15;11:30;4563
03.01.2022;11:30;11:45;4781
03.01.2022;11:45;12:00;4821
03.01.2022;12:00;12:15;4596
03.01.2022;12:15;12:30;4484
03.01.2022;12:30;12:45;4392
03.01.2022;12:45;13:00;4198
03.01.2022;13:00;13:15;4256
03.01.2022;13:15;13:30;4072
03.01.2022;13:30;13:45;3995
03.01.2022;13:45;14:00;4038
03.01.2022;14:00;14:15;3983
03.01.2022;14:15;14:30;3986
03.01.2022;14:30;14:45;3939
03.01.2022;14:45;15:00;3940
03.01.2022;15:00;15:15;3920
03.01.2022;15:15;15:30;3989
03.01.2022;15:30;15:45;4062
03.01.2022;15:45;16:00;4223
03.01.2022;16:00;16:15;4544
03.01.2022;16:15;16:30;4749
03.01.2022;16:30;16:45;5074
03.01.2022;16:45;17:00;5238
03.01.2022;17:00;17:15;5295
03.01.2022;17:15;17:30;5455
03.01.2022;17:30;17:45;5522
03.01.2022;17:45;18:00;5631
03.01.2022;18:00;18:15;5535
03.01.2022;18:15;18:30;5454
03.01.2022;18:30;18:45;5419
03.01.2022;18:45;19:00;5342
03.01.2022;19:00;19:15;5205
03.01.2022;19:15;19:30;5148
03.01.2022;19:30;19:45;5044
03.01.2022;19:45;20:00;4874
03.01.2022;20:00;20:15;4779
03.01.2022;20:15;20:30;4698
03.01.2022;20:30;20:45;4597
03.01.2022;20:45;21:00;4469
03.01.2022;21:00;21:15;4270
03.01.2022;21:15;21:30;4176
03.01.2022;21:30;21:45;4091
03.01.2022;21:45;22:00;4002
03.01.2022;22:00;22:15;3770
03.01.2022;22:15;22:30;3562
03.01.2022;22:30;22:45;3347
03.01.2022;22:45;23:00;3199
03.01.2022;23:00;23:15;2948
03.01.2022;23:15;23:30;2789
03.01.2022;23:30;23:45;2648
03.01.2022;23:45;0:00;2547
04.01.2022;0:00;0:15;2471
04.01.2022;0:15;0:30;2361
04.01.2022;0:30;0:45;2286
04.01.2022;0:45;1:00;2229
04.01.2022;1:00;1:15;2225
04.01.2022;1:15;1:30;2212
04.01.2022;1:30;1:45;2193
04.01.2022;1:45;2:00;2160
04.01.2022;2:00;2:15;2135
04.01.2022;2:15;2:30;2133
04.01.2022;2:30;2:45;2150
04.01.2022;2:45;3:00;2159
04.01.2022;3:00;3:15;2189
04.01.2022;3:15;3:30;2241
04.01.2022;3:30;3:45;2305
04.01.2022;3:45;4:00;2396
04.01.2022;4:00;4:15;2472
04.01.2022;4:15;4:30;2500
04.01.2022;4:30;4:45;2609
04.01.2022;4:45;5:00;2668
04.01.2022;5:00;5:15;2802
04.01.2022;5:15;5:30;2876
04.01.2022;5:30;5:45;3006
04.01.2022;5:45;6:00;3100
04.01.2022;6:00;6:15;3304
04.01.2022;6:15;6:30;3424
04.01.2022;6:30;6:45;3570
04.01.2022;6:45;7:00;3687
04.01.2022;7:00;7:15;3780
04.01.2022;7:15;7:30;3944
04.01.2022;7:30;7:45;4098
04.01.2022;7:45;8:00;4143
04.01.2022;8:00;8:15;4065
04.01.2022;8:15;8:30;4117
04.01.2022;8:30;8:45;4185
04.01.2022;8:45;9:00;4299
04.01.2022;9:00;9:15;4310
04.01.2022;9:15;9:30;4236
04.01.2022;9:30;9:45;4207
04.01.2022;9:45;10:00;4250
04.01.2022;10:00;10:15;4287
04.01.2022;10:15;10:30;4275
04.01.2022;10:30;10:45;4295
04.01.2022;10:45;11:00;4337
04.01.2022;11:00;11:15;4509
04.01.2022;11:15;11:30;4566
04.01.2022;11:30;11:45;4672
04.01.2022;11:45;12:00;4683
04.01.2022;12:00;12:15;4532
04.01.2022;12:15;12:30;4490
04.01.2022;12:30;12:45;4506
04.01.2022;12:45;13:00;4438
04.01.2022;13:00;13:15;4334
04.01.2022;13:15;13:30;4247
04.01.2022;13:30;13:45;4163
04.01.2022;13:45;14:00;4082
04.01.2022;14:00;14:15;4123
04.01.2022;14:15;14:30;4194
04.01.2022;14:30;14:45;4197
04.01.2022;14:45;15:00;4173
04.01.2022;15:00;15:15;4194
04.01.2022;15:15;15:30;4217
04.01.2022;15:30;15:45;4305
04.01.2022;15:45;16:00;4438
04.01.2022;16:00;16:15;4627
04.01.2022;16:15;16:30;4818
04.01.2022;16:30;16:45;5122
04.01.2022;16:45;17:00;5274
04.01.2022;17:00;17:15;5370
04.01.2022;17:15;17:30;5466
04.01.2022;17:30;17:45;5526
04.01.2022;17:45;18:00;5624
04.01.2022;18:00;18:15;5504
04.01.2022;18:15;18:30;5410
04.01.2022;18:30;18:45;5430
04.01.2022;18:45;19:00;5380
04.01.2022;19:00;19:15;5230
04.01.2022;19:15;19:30;5150
04.01.2022;19:30;19:45;5105
04.01.2022;19:45;20:00;4970
04.01.2022;20:00;20:15;4887
04.01.2022;20:15;20:30;4774
04.01.2022;20:30;20:45;4608
04.01.2022;20:45;21:00;4453
04.01.2022;21:00;21:15;4299
04.01.2022;21:15;21:30;4221
04.01.2022;21:30;21:45;4111
04.01.2022;21:45;22:00;4037
04.01.2022;22:00;22:15;3829
04.01.2022;22:15;22:30;3638
04.01.2022;22:30;22:45;3438
04.01.2022;22:45;23:00;3269
04.01.2022;23:00;23:15;3044
04.01.2022;23:15;23:30;2858
04.01.2022;23:30;23:45;2704
04.01.2022;23:45;0:00;2636
05.01.2022;0:00;0:15;2530
05.01.2022;0:15;0:30;2448
05.01.2022;0:30;0:45;2391
05.01.2022;0:45;1:00;2302
05.01.2022;1:00;1:15;2279
05.01.2022;1:15;1:30;2247
05.01.2022;1:30;1:45;2210
05.01.2022;1:45;2:00;2210
05.01.2022;2:00;2:15;2194
05.01.2022;2:15;2:30;2192
05.01.2022;2:30;2:45;2233
05.01.2022;2:45;3:00;2285
05.01.2022;3:00;3:15;2297
05.01.2022;3:15;3:30;2349
05.01.2022;3:30;3:45;2409
05.01.2022;3:45;4:00;2476
05.01.2022;4:00;4:15;2584
05.01.2022;4:15;4:30;2584
05.01.2022;4:30;4:45;2738
05.01.2022;4:45;5:00;2812
05.01.2022;5:00;5:15;2873
05.01.2022;5:15;5:30;3059
05.01.2022;5:30;5:45;3191
05.01.2022;5:45;6:00;3219
05.01.2022;6:00;6:15;3318
05.01.2022;6:15;6:30;3514
05.01.2022;6:30;6:45;3689
05.01.2022;6:45;7:00;3782
05.01.2022;7:00;7:15;3911
05.01.2022;7:15;7:30;4066
05.01.2022;7:30;7:45;4317
05.01.2022;7:45;8:00;4240
05.01.2022;8:00;8:15;4307
05.01.2022;8:15;8:30;4341
05.01.2022;8:30;8:45;4347
05.01.2022;8:45;9:00;4455
05.01.2022;9:00;9:15;4440
05.01.2022;9:15;9:30;4417
05.01.2022;9:30;9:45;4423
05.01.2022;9:45;10:00;4399
05.01.2022;10:00;10:15;4373
05.01.2022;10:15;10:30;4457
05.01.2022;10:30;10:45;4425
05.01.2022;10:45;11:00;4512
05.01.2022;11:00;11:15;4677
05.01.2022;11:15;11:30;4892
05.01.2022;11:30;11:45;4876
05.01.2022;11:45;12:00;4833
05.01.2022;12:00;12:15;4655
05.01.2022;12:15;12:30;4447
05.01.2022;12:30;12:45;4465
05.01.2022;12:45;13:00;4509
05.01.2022;13:00;13:15;4366
05.01.2022;13:15;13:30;4326
05.01.2022;13:30;13:45;4241
05.01.2022;13:45;14:00;4239
05.01.2022;14:00;14:15;4246
05.01.2022;14:15;14:30;4177
05.01.2022;14:30;14:45;4131
05.01.2022;14:45;15:00;4099
05.01.2022;15:00;15:15;4146
05.01.2022;15:15;15:30;4069
05.01.2022;15:30;15:45;4210
05.01.2022;15:45;16:00;4310
05.01.2022;16:00;16:15;4582
05.01.2022;16:15;16:30;4833
05.01.2022;16:30;16:45;5280
05.01.2022;16:45;17:00;5393
05.01.2022;17:00;17:15;5502
05.01.2022;17:15;17:30;5708
05.01.2022;17:30;17:45;5848
05.01.2022;17:45;18:00;5811
05.01.2022;18:00;18:15;5711
05.01.2022;18:15;18:30;5681
05.01.2022;18:30;18:45;5655
05.01.2022;18:45;19:00;5524
05.01.2022;19:00;19:15;5428
05.01.2022;19:15;19:30;5309
05.01.2022;19:30;19:45;5236
05.01.2022;19:45;20:00;5120
05.01.2022;20:00;20:15;5011
05.01.2022;20:15;20:30;4878
05.01.2022;20:30;20:45;4756
05.01.2022;20:45;21:00;4639
05.01.2022;21:00;21:15;4422
05.01.2022;21:15;21:30;4315
05.01.2022;21:30;21:45;4223
05.01.2022;21:45;22:00;4149
05.01.2022;22:00;22:15;3954
05.01.2022;22:15;22:30;3757
05.01.2022;22:30;22:45;3526
05.01.2022;22:45;23:00;3334
05.01.2022;23:00;23:15;3140
05.01.2022;23:15;23:30;2948
05.01.2022;23:30;23:45;2857
05.01.2022;23:45;0:00;2783
06.01.2022;0:00;0:15;2655
06.01.2022;0:15;0:30;2556
06.01.2022;0:30;0:45;2527
06.01.2022;0:45;1:00;2470
06.01.2022;1:00;1:15;2444
06.01.2022;1:15;1:30;2426
06.01.2022;1:30;1:45;2410
06.01.2022;1:45;2:00;2414
06.01.2022;2:00;2:15;2456
06.01.2022;2:15;2:30;2481
06.01.2022;2:30;2:45;2491
06.01.2022;2:45;3:00;2517
06.01.2022;3:00;3:15;2541
06.01.2022;3:15;3:30;2615
06.01.2022;3:30;3:45;2662
06.01.2022;3:45;4:00;2666
06.01.2022;4:00;4:15;2746
06.01.2022;4:15;4:30;2811
06.01.2022;4:30;4:45;2949
06.01.2022;4:45;5:00;2981
06.01.2022;5:00;5:15;3078
06.01.2022;5:15;5:30;3193
06.01.2022;5:30;5:45;3323
06.01.2022;5:45;6:00;3370
06.01.2022;6:00;6:15;3517
06.01.2022;6:15;6:30;3718
06.01.2022;6:30;6:45;3869
06.01.2022;6:45;7:00;3898
06.01.2022;7:00;7:15;4081
06.01.2022;7:15;7:30;4303
06.01.2022;7:30;7:45;4477
06.01.2022;7:45;8:00;4316
06.01.2022;8:00;8:15;4269
06.01.2022;8:15;8:30;4222
06.01.2022;8:30;8:45;4172
06.01.2022;8:45;9:00;4285
06.01.2022;9:00;9:15;4332
06.01.2022;9:15;9:30;4431
06.01.2022;9:30;9:45;4536
06.01.2022;9:45;10:00;4522
06.01.2022;10:00;10:15;4490
06.01.2022;10:15;10:30;4481
06.01.2022;10:30;10:45;4483
06.01.2022;10:45;11:00;4535
06.01.2022;11:00;11:15;4616
06.01.2022;11:15;11:30;4766
06.01.2022;11:30;11:45;4930
06.01.2022;11:45;12:00;4971
06.01.2022;12:00;12:15;4894
06.01.2022;12:15;12:30;4617
06.01.2022;12:30;12:45;4571
06.01.2022;12:45;13:00;4506
06.01.2022;13:00;13:15;4417
06.01.2022;13:15;13:30;4405
06.01.2022;13:30;13:45;4225
06.01.2022;13:45;14:00;4122
06.01.2022;14:00;14:15;4111
06.01.2022;14:15;14:30;4053
06.01.2022;14:30;14:45;4088
06.01.2022;14:45;15:00;4111
06.01.2022;15:00;15:15;4068
06.01.2022;15:15;15:30;4050
06.01.2022;15:30;15:45;4153
06.01.2022;15:45;16:00;4237
06.01.2022;16:00;16:15;4356
06.01.2022;16:15;16:30;4570
06.01.2022;16:30;16:45;4980
06.01.2022;16:45;17:00;5305
06.01.2022;17:00;17:15;5603
06.01.2022;17:15;17:30;5788
06.01.2022;17:30;17:45;5903
06.01.2022;17:45;18:00;5862
06.01.2022;18:00;18:15;5702
06.01.2022;18:15;18:30;5585
06.01.2022;18:30;18:45;5572
06.01.2022;18:45;19:00;5511
06.01.2022;19:00;19:15;5385
06.01.2022;19:15;19:30;5338
06.01.2022;19:30;19:45;5248
06.01.2022;19:45;20:00;5182
06.01.2022;20:00;20:15;5029
06.01.2022;20:15;20:30;4879
06.01.2022;20:30;20:45;4774
06.01.2022;20:45;21:00;4666
06.01.2022;21:00;21:15;4559
06.01.2022;21:15;21:30;4418
06.01.2022;21:30;21:45;4338
06.01.2022;21:45;22:00;4202
06.01.2022;22:00;22:15;4097
06.01.2022;22:15;22:30;3885
06.01.2022;22:30;22:45;3668
06.01.2022;22:45;23:00;3489
06.01.2022;23:00;23:15;3331
06.01.2022;23:15;23:30;3203
06.01.2022;23:30;23:45;3042
06.01.2022;23:45;0:00;2932
07.01.2022;0:00;0:15;2850
07.01.2022;0:15;0:30;2803
07.01.2022;0:30;0:45;2758
07.01.2022;0:45;1:00;2697
07.01.2022;1:00;1:15;2695
07.01.2022;1:15;1:30;2660
07.01.2022;1:30;1:45;2676
07.01.2022;1:45;2:00;2726
07.01.2022;2:00;2:15;2712
07.01.2022;2:15;2:30;2707
07.01.2022;2:30;2:45;2747
07.01.2022;2:45;3:00;2771
07.01.2022;3:00;3:15;2802
07.01.2022;3:15;3:30;2821
07.01.2022;3:30;3:45;2810
07.01.2022;3:45;4:00;2820
07.01.2022;4:00;4:15;2913
07.01.2022;4:15;4:30;2952
07.01.2022;4:30;4:45;3113
07.01.2022;4:45;5:00;3146
07.01.2022;5:00;5:15;3153
07.01.2022;5:15;5:30;3265
07.01.2022;5:30;5:45;3395
07.01.2022;5:45;6:00;3398
07.01.2022;6:00;6:15;3534
07.01.2022;6:15;6:30;3669
07.01.2022;6:30;6:45;3857
07.01.2022;6:45;7:00;3929
07.01.2022;7:00;7:15;4121
07.01.2022;7:15;7:30;4295
07.01.2022;7:30;7:45;4438
07.01.2022;7:45;8:00;4545
07.01.2022;8:00;8:15;4526
07.01.2022;8:15;8:30;4539
07.01.2022;8:30;8:45;4518
07.01.2022;8:45;9:00;4523
07.01.2022;9:00;9:15;4575
07.01.2022;9:15;9:30;4491
07.01.2022;9:30;9:45;4521
07.01.2022;9:45;10:00;4493
07.01.2022;10:00;10:15;4568
07.01.2022;10:15;10:30;4644
07.01.2022;10:30;10:45;4625
07.01.2022;10:45;11:00;4607
07.01.2022;11:00;11:15;4716
07.01.2022;11:15;11:30;4959
07.01.2022;11:30;11:45;4939
07.01.2022;11:45;12:00;4924
07.01.2022;12:00;12:15;4738
07.01.2022;12:15;12:30;4649
07.01.2022;12:30;12:45;4656
07.01.2022;12:45;13:00;4645
07.01.2022;13:00;13:15;4557
07.01.2022;13:15;13:30;4467
07.01.2022;13:30;13:45;4440
07.01.2022;13:45;14:00;4388
07.01.2022;14:00;14:15;4256
07.01.2022;14:15;14:30;4268
07.01.2022;14:30;14:45;4321
07.01.2022;14:45;15:00;4345
07.01.2022;15:00;15:15;4349
07.01.2022;15:15;15:30;4383
07.01.2022;15:30;15:45;4447
07.01.2022;15:45;16:00;4542
07.01.2022;16:00;16:15;4827
07.01.2022;16:15;16:30;5056
07.01.2022;16:30;16:45;5346
07.01.2022;16:45;17:00;5467
07.01.2022;17:00;17:15;5527
07.01.2022;17:15;17:30;5605
07.01.2022;17:30;17:45;5653
07.01.2022;17:45;18:00;5671
07.01.2022;18:00;18:15;5548
07.01.2022;18:15;18:30;5588
07.01.2022;18:30;18:45;5571
07.01.2022;18:45;19:00;5519
07.01.2022;19:00;19:15;5465
07.01.2022;19:15;19:30;5387
07.01.2022;19:30;19:45;5292
07.01.2022;19:45;20:00;5118
07.01.2022;20:00;20:15;4974
07.01.2022;20:15;20:30;4893
07.01.2022;20:30;20:45;4752
07.01.2022;20:45;21:00;4617
07.01.2022;21:00;21:15;4483
07.01.2022;21:15;21:30;4375
07.01.2022;21:30;21:45;4303
07.01.2022;21:45;22:00;4239
07.01.2022;22:00;22:15;4154
07.01.2022;22:15;22:30;3981
07.01.2022;22:30;22:45;3767
07.01.2022;22:45;23:00;3562
07.01.2022;23:00;23:15;3369
07.01.2022;23:15;23:30;3269
07.01.2022;23:30;23:45;3148
07.01.2022;23:45;0:00;3018
08.01.2022;0:00;0:15;2874
08.01.2022;0:15;0:30;2794
08.01.2022;0:30;0:45;2693
08.01.2022;0:45;1:00;2667
08.01.2022;1:00;1:15;2625
08.01.2022;1:15;1:30;2613
08.01.2022;1:30;1:45;2599
08.01.2022;1:45;2:00;2554
08.01.2022;2:00;2:15;2557
08.01.2022;2:15;2:30;2568
08.01.2022;2:30;2:45;2622
08.01.2022;2:45;3:00;2617
08.01.2022;3:00;3:15;2671
08.01.2022;3:15;3:30;2716
08.01.2022;3:30;3:45;2707
08.01.2022;3:45;4:00;2756
08.01.2022;4:00;4:15;2804
08.01.2022;4:15;4:30;2812
08.01.2022;4:30;4:45;2885
08.01.2022;4:45;5:00;2887
08.01.2022;5:00;5:15;2951
08.01.2022;5:15;5:30;2955
08.01.2022;5:30;5:45;2899
08.01.2022;5:45;6:00;2823
08.01.2022;6:00;6:15;2870
08.01.2022;6:15;6:30;2897
08.01.2022;6:30;6:45;3003
08.01.2022;6:45;7:00;3097
08.01.2022;7:00;7:15;3278
08.01.2022;7:15;7:30;3427
08.01.2022;7:30;7:45;3637
08.01.2022;7:45;8:00;3685
08.01.2022;8:00;8:15;3704
08.01.2022;8:15;8:30;3813
08.01.2022;8:30;8:45;4013
08.01.2022;8:45;9:00;4186
08.01.2022;9:00;9:15;4195
08.01.2022;9:15;9:30;4321
08.01.2022;9:30;9:45;4362
08.01.2022;9:45;10:00;4463
08.01.2022;10:00;10:15;4572
08.01.2022;10:15;10:30;4679
08.01.2022;10:30;10:45;4720
08.01.2022;10:45;11:00;4764
08.01.2022;11:00;11:15;4886
08.01.2022;11:15;11:30;5118
08.01.2022;11:30;11:45;5259
08.01.2022;11:45;12:00;5266
08.01.2022;12:00;12:15;5084
08.01.2022;12:15;12:30;4920
08.01.2022;12:30;12:45;4878
08.01.2022;12:45;13:00;4777
08.01.2022;13:00;13:15;4620
08.01.2022;13:15;13:30;4448
08.01.2022;13:30;13:45;4334
08.01.2022;13:45;14:00;4232
08.01.2022;14:00;14:15;4215
08.01.2022;14:15;14:30;4133
08.01.2022;14:30;14:45;4137
08.01.2022;14:45;15:00;4031
08.01.2022;15:00;15:15;4023
08.01.2022;15:15;15:30;4064
08.01.2022;15:30;15:45;4173
08.01.2022;15:45;16:00;4306
08.01.2022;16:00;16:15;4406
08.01.2022;16:15;16:30;4545
08.01.2022;16:30;16:45;4844
08.01.2022;16:45;17:00;5038
08.01.2022;17:00;17:15;5137
08.01.2022;17:15;17:30;5279
08.01.2022;17:30;17:45;5414
08.01.2022;17:45;18:00;5486
08.01.2022;18:00;18:15;5554
08.01.2022;18:15;18:30;5543
08.01.2022;18:30;18:45;5522
08.01.2022;18:45;19:00;5443
08.01.2022;19:00;19:15;5336
08.01.2022;19:15;19:30;5176
08.01.2022;19:30;19:45;5068
08.01.2022;19:45;20:00;4993
08.01.2022;20:00;20:15;4894
08.01.2022;20:15;20:30;4778
08.01.2022;20:30;20:45;4694
08.01.2022;20:45;21:00;4507
08.01.2022;21:00;21:15;4391
08.01.2022;21:15;21:30;4335
08.01.2022;21:30;21:45;4284
08.01.2022;21:45;22:00;4275
08.01.2022;22:00;22:15;4195
08.01.2022;22:15;22:30;4008
08.01.2022;22:30;22:45;3851
08.01.2022;22:45;23:00;3704
08.01.2022;23:00;23:15;3538
08.01.2022;23:15;23:30;3423
08.01.2022;23:30;23:45;3278
08.01.2022;23:45;0:00;3134
09.01.2022;0:00;0:15;3023
09.01.2022;0:15;0:30;2919
09.01.2022;0:30;0:45;2823
09.01.2022;0:45;1:00;2759
09.01.2022;1:00;1:15;2716
09.01.2022;1:15;1:30;2640
09.01.2022;1:30;1:45;2647
09.01.2022;1:45;2:00;2654
09.01.2022;2:00;2:15;2664
09.01.2022;2:15;2:30;2690
09.01.2022;2:30;2:45;2713
09.01.2022;2:45;3:00;2720
09.01.2022;3:00;3:15;2737
09.01.2022;3:15;3:30;2775
09.01.2022;3:30;3:45;2791
09.01.2022;3:45;4:00;2762
09.01.2022;4:00;4:15;2794
09.01.2022;4:15;4:30;2779
09.01.2022;4:30;4:45;2817
09.01.2022;4:45;5:00;2847
09.01.2022;5:00;5:15;2877
09.01.2022;5:15;5:30;2891
09.01.2022;5:30;5:45;2805
09.01.2022;5:45;6:00;2728
09.01.2022;6:00;6:15;2730
09.01.2022;6:15;6:30;2783
09.01.2022;6:30;6:45;2875
09.01.2022;6:45;7:00;2974
09.01.2022;7:00;7:15;3050
09.01.2022;7:15;7:30;3162
09.01.2022;7:30;7:45;3408
09.01.2022;7:45;8:00;3466
09.01.2022;8:00;8:15;3585
09.01.2022;8:15;8:30;3742
09.01.2022;8:30;8:45;3894
09.01.2022;8:45;9:00;3929
09.01.2022;9:00;9:15;3954
09.01.2022;9:15;9:30;4007
09.01.2022;9:30;9:45;4084
09.01.2022;9:45;10:00;4130
09.01.2022;10:00;10:15;4216
09.01.2022;10:15;10:30;4480
09.01.2022;10:30;10:45;4574
09.01.2022;10:45;11:00;4783
09.01.2022;11:00;11:15;4942
09.01.2022;11:15;11:30;5428
09.01.2022;11:30;11:45;5611
09.01.2022;11:45;12:00;5440
09.01.2022;12:00;12:15;5074
09.01.2022;12:15;12:30;4771
09.01.2022;12:30;12:45;4637
09.01.2022;12:45;13:00;4510
09.01.2022;13:00;13:15;4320
09.01.2022;13:15;13:30;4279
09.01.2022;13:30;13:45;4169
09.01.2022;13:45;14:00;4062
09.01.2022;14:00;14:15;4042
09.01.2022;14:15;14:30;4034
09.01.2022;14:30;14:45;4090
09.01.2022;14:45;15:00;4118
09.01.2022;15:00;15:15;4061
09.01.2022;15:15;15:30;4142
09.01.2022;15:30;15:45;4137
09.01.2022;15:45;16:00;4164
09.01.2022;16:00;16:15;4320
09.01.2022;16:15;16:30;4365
09.01.2022;16:30;16:45;4708
09.01.2022;16:45;17:00;4922
09.01.2022;17:00;17:15;5147
09.01.2022;17:15;17:30;5334
09.01.2022;17:30;17:45;5433
09.01.2022;17:45;18:00;5505
09.01.2022;18:00;18:15;5615
09.01.2022;18:15;18:30;5605